Temp
19 19 18 18 18 18 17 17 16 18 15 16 16 16 16 14 13 13 12 12 11 11 10 9 6 7 5 4 3 3 4 3 3 5 4 3 2 2 2 2 1 0 0
17 18 18 18 18 17 17 16 17 15 15 15 15 14 13 12 12 12 12 10 10 9 8 6 5 4 3 3 3 3 3 3 2 3 2 2 1 0 0 0 0 -0 -0
16 17 18 17 17 16 15 16 15 15 14 12 12 12 12 12 11 11 11 9 7 8 7 5 4 3 3 3 2 2 2 2 1 1 1 1 1 0 0 -0 -0 -0 -0
16 16 16 16 15 15 15 15 14 13 12 11 11 12 12 12 11 10 9 8 7 6 6 4 4 3 3 2 2 2 1 1 -0 -0 -0 -0 0 0 -0 -0 -1 -0 0
14 15 15 15 15 14 13 12 12 11 11 11 10 10 11 11 11 9 8 7 6 5 4 4 4 1 2 1 1 1 -0 -0 -1 -1 -1 -1 -0 -0 -0 -0 -0 -0 1
13 13 13 13 13 12 11 10 10 10 9 9 9 10 10 10 9 9 7 6 5 5 2 3 1 0 0 -0 -1 -1 -2 -1 -1 -1 -1 -1 -1 -1 -0 -1 -1 -0 0
12 12 12 11 11 10 9 9 9 8 7 7 7 8 8 8 7 7 7 6 5 3 4 2 1 0 -0 -1 -1 -2 -2 -2 -2 -2 -2 -1 -1 -1 -1 -1 -0 -0 -0
11 10 11 10 10 9 8 8 7 7 6 6 7 7 7 6 6 6 6 5 4 3 2 2 1 -0 -1 -1 -1 -1 -2 -2 -2 -2 -2 -1 -1 -1 -1 -1 -0 -0 1
10 10 10 9 8 8 7 6 6 5 5 5 6 5 6 4 5 5 5 4 3 2 1 1 0 -0 -1 -1 -2 -2 -2 -2 -2 -1 -1 -1 -1 -1 -1 0 -0 -1 1
11 10 9 9 8 6 6 5 4 4 3 3 3 4 5 3 2 3 3 3 1 0 -0 -0 -0 -1 -1 -1 -2 -2 -2 -2 -2 -2 -1 -1 -1 -1 -1 -1 -1 -2 -1
11 9 8 8 7 6 4 4 3 2 1 1 1 2 3 3 1 2 2 1 0 -1 -1 -1 -1 -1 -1 -2 -2 -3 -3 -3 -2 -2 -1 -1 -1 -1 -1 -1 -2 -2 -2
10 9 8 6 5 4 3 2 1 1 1 -0 -1 -1 0 1 1 0 1 2 1 0 -1 -1 -1 -1 -2 -2 -3 -3 -3 -3 -2 -2 -2 -2 -2 -2 -2 -2 -2 -3 -3
9 7 6 5 4 3 2 1 1 1 0 -0 -1 -1 -1 -1 -1 -1 -1 -0 -0 -0 -0 -1 -1 -2 -2 -3 -3 -3 -3 -3 -3 -3 -3 -3 -3 -3 -3 -3 -3 -3 -3
5 4 4 3 2 1 1 1 1 1 0 -0 -0 -1 -2 -2 -2 -1 -1 -1 -1 -1 -1 -2 -2 -2 -2 -3 -3 -3 -3 -3 -3 -3 -4 -4 -3 -3 -4 -3 -2 -3 -2
3 2 1 1 1 0 1 1 1 1 1 1 0 -1 -1 -2 -2 -1 -1 -1 -1 -1 -1 -2 -2 -2 -2 -3 -3 -3 -3 -3 -3 -4 -4 -4 -3 -3 -3 -2 -2 -2 -2
1 1 1 1 0 0 0 -0 -0 0 0 1 3 4 -0 1 -0 -0 -1 -1 -1 -1 -2 -2 -2 -2 -2 -3 -3 -3 -3 -4 -4 -4 -4 -4 -3 -2 -2 -3 -3 -2 -2
2 1 0 0 0 0 -0 -0 -1 -1 1 2 2 2 3 1 -1 -1 -1 -1 -1 -2 -1 -2 -2 -2 -3 -3 -3 -3 -3 -4 -4 -4 -4 -4 -3 -3 -2 -2 -3 -3 -3
1 1 1 1 0 0 0 0 -0 -1 -1 -2 -0 1 0 -1 -1 -2 -2 -2 -2 -2 -2 -2 -2 -3 -3 -3 -3 -3 -3 -4 -4 -4 -4 -4 -4 -3 -3 -2 -2 -3 -2
0 0 0 0 0 0 -0 -0 -1 -1 -2 -2 -2 -2 -2 -2 -2 -2 -1 -1 -2 -2 -3 -3 -4 -4 -4 -4 -4 -4 -4 -4 -4 -4 -4 -4 -4 -4 -4 -3 -3 -4 -3
0 -0 -0 -0 -0 -0 -0 -1 -1 -2 -2 -2 -2 -2 -3 -2 -2 -3 -2 -2 -3 -3 -4 -4 -4 -4 -4 -4 -4 -4 -4 -4 -4 -4 -4 -4 -4 -4 -3 -3 -3 -3 -3
-1 -1 -1 -1 -1 -1 -1 -1 -2 -2 -2 -2 -2 -3 -2 -2 -2 -3 -3 -3 -3 -4 -4 -4 -5 -5 -5 -5 -5 -5 -5 -5 -5 -5 -4 -4 -4 -4 -4 -3 -3 -3 -3
-1 -1 -1 -1 -2 -2 -2 -2 -2 -2 -2 -3 -3 -3 -3 -3 -3 -3 -3 -4 -4 -4 -5 -5 -5 -5 -5 -5 -5 -5 -5 -5 -5 -5 -5 -5 -5 -4 -4 -4 -4 -4 -4
-2 -2 -2 -2 -2 -2 -2 -2 -3 -3 -3 -3 -4 -3 -3 -3 -3 -4 -4 -4 -4 -5 -5 -5 -6 -6 -6 -6 -6 -5 -5 -5 -5 -4 -4 -4 -4 -4 -4 -4 -4 -4 -4
-2 -2 -2 -2 -2 -2 -3 -3 -3 -4 -4 -4 -4 -4 -4 -4 -4 -4 -5 -4 -4 -4 -4 -5 -5 -6 -5 -5 -5 -5 -5 -4 -4 -4 -4 -4 -4 -4 -5 -5 -5 -5 -5
-2 -2 -2 -2 -2 -3 -3 -4 -4 -4 -4 -4 -4 -4 -5 -5 -5 -5 -5 -5 -5 -5 -5 -5 -5 -5 -5 -5 -5 -5 -4 -4 -4 -4 -4 -4 -4 -4 -5 -5 -5 -6 -5
-2 -2 -3 -3 -3 -3 -3 -4 -4 -4 -4 -4 -5 -5 -5 -5 -5 -5 -5 -6 -6 -6 -6 -6 -6 -6 -6 -6 -6 -6 -5 -4 -4 -4 -4 -4 -4 -4 -5 -5 -5 -6 -6
Height
672 674 676 678 682 688 691 697 703 708 713 720 726 733 739 746 753 759 767 772 778 780 785 790 792 794 799 802 804 806 806 808 807 802 800 799 796 792 786 782 776 770 763
666 669 672 675 678 682 686 691 697 702 708 714 720 728 734 741 749 756 762 769 773 778 784 791 791 792 797 799 801 802 804 804 805 801 799 797 794 789 785 778 772 767 761
662 663 666 668 673 678 681 686 692 697 703 709 716 723 730 739 747 754 761 767 774 782 784 786 787 790 794 797 798 800 800 801 801 799 796 794 791 786 781 777 771 765 760
661 661 663 665 669 673 678 683 688 694 698 705 712 719 726 735 743 750 756 764 769 776 782 786 785 788 790 792 794 795 797 798 798 797 794 790 787 783 780 775 768 763 758
660 660 661 663 667 671 675 680 685 691 696 702 709 717 725 732 739 745 754 760 769 775 782 778 780 787 786 788 789 791 794 794 794 793 791 789 785 781 778 774 768 763 755
660 659 660 662 664 667 672 677 684 690 694 700 708 714 720 729 735 742 750 758 766 771 773 774 781 784 782 783 786 788 790 790 790 789 787 787 783 781 776 774 768 762 755
658 658 658 661 663 666 670 676 681 686 693 699 706 712 720 727 734 743 750 756 762 766 767 772 777 779 780 783 784 785 786 786 786 786 783 782 780 778 775 771 767 763 758
655 655 658 658 660 664 668 670 677 684 689 695 702 711 717 726 734 742 748 754 761 764 769 772 775 776 780 782 783 784 784 783 782 783 782 778 777 775 773 770 765 761 756
655 654 655 658 658 659 665 670 674 681 687 692 701 708 716 724 733 740 746 752 758 763 769 771 773 776 779 780 780 781 781 781 780 779 778 776 774 773 771 768 764 760 756
650 649 650 653 657 658 660 666 673 681 686 692 703 711 716 723 734 740 746 751 756 761 766 770 772 776 779 778 778 778 778 779 779 778 776 775 773 772 770 768 765 761 759
645 644 645 647 650 656 660 665 671 680 689 697 704 711 717 722 732 739 744 750 754 760 764 768 770 774 776 777 776 775 775 776 776 778 776 774 773 771 769 768 764 761 759
639 638 638 641 646 650 657 665 670 678 685 698 704 711 717 724 731 738 742 746 752 755 760 765 768 771 772 773 774 775 775 775 776 776 775 773 772 770 768 767 765 762 760
631 631 633 636 642 646 651 661 671 676 685 694 701 706 717 723 732 736 740 744 750 753 758 763 767 771 771 772 773 774 775 775 775 776 776 773 772 770 768 767 764 761 760
623 626 629 632 639 647 650 658 665 672 679 688 699 703 714 724 730 736 739 744 749 755 760 764 767 770 772 772 774 774 775 775 775 776 776 773 771 769 768 767 764 762 762
617 623 626 630 636 645 649 658 665 665 673 681 689 694 707 718 724 729 734 740 746 752 758 763 766 769 770 773 774 775 774 774 774 776 775 773 772 772 770 767 764 763 762
614 619 623 628 635 641 646 661 670 669 671 684 692 694 706 713 721 728 734 741 748 752 758 762 766 767 770 772 773 773 774 775 774 775 774 773 773 772 770 768 767 766 765
606 614 620 624 630 635 644 657 666 678 678 688 696 700 705 712 723 728 733 743 749 753 757 760 765 768 769 771 772 773 774 775 775 775 774 774 773 772 770 769 769 768 768
603 610 614 621 625 631 645 651 660 665 677 688 700 703 709 716 724 729 735 743 749 754 757 760 764 767 769 771 773 773 773 775 776 776 776 775 774 772 771 770 770 770 770
603 610 614 620 627 634 642 647 657 665 676 687 700 708 714 718 726 732 738 743 747 752 757 760 763 767 769 772 775 774 774 775 776 776 777 776 775 774 773 773 772 772 772
604 609 615 622 629 637 640 645 658 666 675 688 698 707 714 722 727 734 739 742 748 751 756 760 764 766 768 771 774 774 775 777 777 777 777 777 777 777 776 775 776 774 775
606 611 615 623 632 639 644 650 659 669 678 689 698 706 715 721 727 733 738 744 748 752 756 760 764 766 769 770 773 774 775 776 776 776 776 777 777 778 778 779 779 778 778
610 615 622 626 630 638 648 655 663 671 682 691 701 710 718 723 729 733 739 745 749 754 758 760 764 767 770 771 774 775 776 777 777 777 777 778 778 779 780 781 781 781 780
616 621 627 633 639 644 656 664 669 678 687 695 703 712 720 726 732 737 742 747 751 755 759 763 765 768 771 773 774 776 776 777 778 777 777 778 780 780 781 782 782 783 783
621 628 634 640 647 654 662 669 676 684 692 700 708 715 721 728 734 740 744 748 753 757 760 764 767 771 772 774 774 776 777 778 779 778 778 779 781 782 783 783 784 785 786
632 638 643 648 654 660 667 676 683 691 697 704 712 719 725 730 736 741 745 750 755 759 764 767 770 772 774 775 776 777 778 780 780 779 780 781 783 784 784 785 786 787 789
643 647 651 657 662 668 675 681 688 695 702 709 715 721 726 732 738 743 747 752 756 761 764 769 770 772 774 777 778 779 780 781 782 782 783 784 785 786 787 787 788 790 792
Wind_Speed
23 26 27 30 33 33 33 33 33 33 31 33 35 36 35 35 34 33 29 26 21 18 16 15 12 10 7 6 6 6 6 7 8 15 10 16 19 23 25 25 25 25 27
16 21 23 25 28 31 32 34 36 35 31 34 36 36 34 34 34 32 29 23 21 19 17 13 11 9 8 7 6 5 6 6 9 13 14 13 18 20 23 26 29 27 25
12 17 21 25 28 28 34 36 36 34 34 33 37 36 35 35 32 27 22 19 16 16 15 13 12 10 8 7 5 5 5 6 7 10 12 15 18 17 23 22 25 25 19
10 16 20 23 27 32 34 35 35 34 36 35 36 37 37 37 32 28 24 24 21 18 16 13 10 9 9 8 6 4 4 6 7 9 11 13 12 15 18 21 21 22 20
9 17 22 26 29 31 32 32 33 34 35 36 36 36 37 36 33 29 27 25 22 20 17 14 11 10 11 9 6 5 4 6 7 8 9 11 13 14 15 18 19 23 21
11 14 21 25 28 29 30 31 32 33 34 35 35 38 39 36 32 30 30 28 24 20 16 14 11 10 8 7 6 6 6 7 8 7 8 10 13 17 18 20 19 12 6
13 17 21 24 25 26 28 30 33 33 33 33 35 39 37 33 31 31 27 24 22 20 17 17 14 10 6 5 3 2 5 8 9 10 11 12 13 15 20 20 18 17 12
15 15 23 25 28 29 30 33 32 33 35 35 38 38 36 32 31 29 26 23 20 17 16 14 10 8 5 3 2 2 5 6 7 8 11 11 12 15 14 16 17 16 17
14 15 21 25 28 33 33 33 34 36 35 36 39 38 37 33 31 29 27 23 20 17 14 11 9 6 4 2 1 3 4 6 5 6 8 8 8 9 10 13 15 14 6
18 19 22 26 26 31 33 34 34 33 32 34 35 34 34 34 28 27 24 22 20 17 13 9 7 5 4 1 0 1 4 6 6 4 3 3 3 5 9 10 11 9 8
21 19 19 22 28 28 30 33 33 30 29 28 32 33 33 32 28 25 22 19 17 14 12 10 8 7 5 1 1 1 1 3 2 3 2 3 5 7 8 10 10 9 8
21 20 21 22 27 31 32 30 31 33 31 28 30 27 29 29 26 24 22 17 18 17 14 12 11 9 6 3 3 2 2 1 1 0 2 4 5 7 8 7 6 6 6
21 23 24 27 28 33 36 32 29 32 28 26 26 26 24 27 25 22 20 20 18 16 15 13 12 9 6 6 5 3 3 3 2 2 2 3 5 7 7 6 5 5 6
21 24 28 30 28 29 29 32 31 30 29 28 26 25 26 25 26 24 22 20 18 16 16 15 13 10 7 7 6 6 4 5 4 2 2 3 5 5 4 5 6 2 5
20 23 23 24 27 26 25 26 27 31 32 33 31 34 32 25 29 29 28 26 23 20 20 16 12 9 8 6 6 5 5 5 4 2 3 4 5 5 5 5 6 6 7
21 22 23 25 26 26 27 20 17 27 31 28 35 40 29 31 32 28 25 22 22 22 16 13 10 9 7 7 6 6 5 5 4 3 3 3 4 4 5 6 7 7 7
24 24 25 27 28 28 28 28 25 25 30 32 35 35 30 33 30 29 26 24 22 19 14 12 11 9 8 7 6 5 5 4 5 5 4 3 3 4 5 6 6 6 6
22 26 27 25 27 28 30 29 30 29 26 25 27 28 30 32 31 29 28 26 19 12 12 13 12 10 9 7 6 5 5 4 4 4 3 3 4 4 5 6 6 6 6
23 22 22 23 26 29 31 32 30 31 28 27 28 29 31 32 31 28 26 18 17 14 14 13 12 10 8 7 5 6 6 5 4 4 3 3 5 4 5 5 6 7 7
21 24 25 24 25 27 31 33 30 30 31 28 26 27 30 30 24 23 21 21 17 16 14 13 12 11 10 8 6 6 6 5 5 4 4 4 5 4 5 5 5 7 8
23 26 29 27 25 26 27 29 29 28 27 25 26 28 29 25 24 22 21 20 18 16 15 14 12 12 11 10 8 7 6 6 5 5 4 4 4 5 5 6 7 7 8
25 26 25 27 29 27 25 27 27 28 27 27 26 28 28 24 23 23 21 20 19 16 14 14 13 12 11 9 8 7 6 5 5 6 5 5 5 5 5 5 6 7 9
24 25 25 25 27 30 26 25 26 26 26 27 28 27 24 23 22 21 20 23 19 18 15 15 14 13 11 9 8 7 6 5 5 6 7 7 6 5 5 6 6 7 9
27 26 26 25 26 26 26 25 26 28 27 26 24 23 24 23 23 22 23 23 22 20 17 16 14 12 12 11 10 9 8 7 8 8 9 9 9 7 7 7 7 9 10
25 24 25 25 25 26 26 25 26 26 25 25 23 24 24 25 24 24 24 23 22 21 18 17 14 13 11 10 10 9 8 9 10 11 11 11 11 10 10 9 9 10 11
23 24 24 24 24 24 25 25 25 25 24 23 24 24 25 25 24 23 23 22 21 20 18 17 15 13 13 12 11 10 9 10 11 12 13 13 12 13 12 12 12 11 11
Wind_Direction
239 227 218 211 209 209 203 202 199 212 204 199 195 194 193 193 192 186 182 178 182 182 183 187 179 184 178 187 196 210 220 229 260 290 294 310 323 324 326 327 324 320 319
251 235 221 215 208 202 195 194 207 210 203 197 192 190 187 188 186 182 177 184 180 175 180 183 178 173 177 191 200 204 231 246 271 289 305 316 325 328 324 323 328 325 320
253 232 218 209 199 194 191 202 204 203 196 188 189 186 185 184 175 178 179 176 189 190 184 180 179 176 182 190 194 209 234 259 270 284 296 319 325 333 329 328 326 328 321
252 225 206 197 189 195 198 202 201 196 188 182 186 188 184 178 176 177 178 184 184 193 186 183 175 181 181 183 194 212 242 262 277 286 300 313 323 333 333 326 328 336 323
233 206 198 198 199 201 199 194 193 189 187 187 183 183 179 177 179 181 183 183 179 176 183 172 172 189 185 185 186 202 238 263 273 290 301 299 308 324 328 326 319 326 331
239 216 208 202 198 194 189 185 184 184 179 177 175 177 175 181 184 185 181 175 178 178 171 164 172 178 174 185 204 230 246 261 271 283 288 294 302 313 323 318 317 329 341
239 229 215 203 194 185 182 180 180 174 172 168 170 174 176 182 182 181 181 174 177 175 174 172 178 182 171 173 219 248 267 276 262 263 271 286 301 317 317 308 312 312 312
244 220 218 200 198 191 183 181 176 175 170 167 170 176 176 172 175 174 174 175 173 170 175 172 170 157 170 163 217 277 290 289 267 260 269 286 299 310 312 312 313 315 327
257 225 216 207 195 189 187 181 176 173 169 169 174 175 171 164 172 173 173 169 167 163 170 168 160 157 171 186 245 300 317 317 281 274 270 280 300 308 322 329 340 340 324
265 235 217 208 202 192 186 180 176 172 164 165 169 172 169 163 168 171 171 165 161 161 156 153 151 153 170 138 86 339 338 322 324 316 279 274 312 344 350 353 350 343 335
274 242 215 200 196 190 180 175 166 157 151 149 154 161 164 165 165 169 167 164 161 151 150 156 157 164 161 134 68 60 347 334 323 312 0 17 353 2 344 346 355 1 353
274 233 207 190 183 176 171 159 154 152 147 146 142 141 157 162 163 164 164 162 160 154 157 160 160 161 150 121 108 70 53 28 284 286 357 2 353 350 346 350 354 7 5
248 209 187 177 175 173 162 154 152 153 151 149 148 143 145 157 161 161 158 154 154 148 150 153 148 143 128 121 100 90 86 93 85 59 20 356 348 347 349 322 343 18 19
200 184 174 166 160 161 159 162 161 161 156 154 154 146 148 154 159 162 158 155 147 142 142 142 141 133 118 113 104 94 84 74 67 50 349 8 4 13 0 359 11 343 16
178 169 162 157 156 154 155 167 173 166 166 162 161 152 152 160 172 169 163 160 157 154 148 143 141 135 127 125 108 100 85 79 70 43 19 26 23 21 22 26 41 47 56
163 162 160 154 151 149 139 135 159 154 152 160 165 166 162 167 165 163 159 153 154 152 148 147 138 137 143 133 132 114 95 83 71 59 40 33 29 33 39 42 49 52 52
168 165 160 156 154 150 146 149 137 143 156 167 167 165 160 157 159 154 150 152 152 150 145 142 144 147 138 134 128 122 106 82 68 57 45 35 45 58 56 54 53 54 51
163 165 161 161 155 152 156 150 146 140 136 130 159 152 151 153 151 148 149 148 146 149 149 146 146 138 132 129 124 120 107 100 83 65 52 48 58 74 71 70 64 59 58
156 160 156 156 156 154 148 140 138 132 128 127 133 140 146 145 147 148 151 147 146 146 145 139 139 138 132 123 127 116 109 100 95 88 73 67 74 78 78 76 78 74 72
150 147 143 142 141 143 140 135 133 130 130 135 136 141 143 142 143 146 152 147 136 136 136 134 138 139 141 144 140 133 124 119 105 97 89 79 85 80 86 77 82 84 76
135 132 131 131 136 137 134 128 129 130 130 134 135 145 150 147 144 142 140 144 139 135 137 139 141 141 138 130 130 145 149 146 133 122 118 112 108 97 87 91 90 86 83
125 124 126 126 124 117 119 125 126 124 127 128 130 139 145 137 138 137 141 143 141 135 136 135 141 142 139 132 129 132 128 119 139 141 133 127 114 108 108 108 100 95 94
112 112 111 110 112 114 116 117 119 121 124 127 132 135 137 135 135 134 134 142 137 135 133 132 131 134 134 136 139 136 119 120 139 131 132 127 123 115 114 116 110 107 108
104 106 108 110 112 112 114 114 115 119 123 126 129 131 132 134 133 135 136 139 138 136 134 132 126 125 122 117 106 105 108 110 119 125 127 131 125 119 117 112 110 115 116
105 109 110 113 113 113 113 117 122 126 126 127 130 131 133 134 134 135 137 139 137 135 135 132 130 131 129 128 128 121 108 118 111 114 122 126 124 123 118 112 112 115 122
104 105 107 112 116 120 124 124 125 129 130 133 133 133 134 135 137 139 140 139 140 141 138 139 140 136 131 130 133 131 124 116 116 119 121 124 122 119 113 111 112 112 120